TimeMST,TemperatureF,Dew PointF,Humidity,Sea Level PressureIn,VisibilityMPH,Wind Direction,Wind SpeedMPH,Gust SpeedMPH,PrecipitationIn,Events,Conditions,WindDirDegrees,DateUTC
12:57 AM,48.9,30.9,50,29.97,10.0,NNE,4.6,-,N/A,,Clear,30,2013-12-29 07:57:00
1:57 AM,48.0,30.9,52,29.97,10.0,NNE,3.5,-,N/A,,Clear,20,2013-12-29 08:57:00
2:57 AM,46.9,30.0,52,29.97,10.0,North,3.5,-,N/A,,Clear,10,2013-12-29 09:57:00
3:57 AM,48.0,28.0,46,29.98,10.0,North,4.6,-,N/A,,Clear,360,2013-12-29 10:57:00
4:57 AM,51.1,23.0,33,29.98,10.0,North,6.9,-,N/A,,Clear,350,2013-12-29 11:57:00
5:57 AM,53.1,21.9,30,30.00,10.0,North,6.9,-,N/A,,Clear,360,2013-12-29 12:57:00
6:57 AM,53.1,19.9,27,30.02,10.0,North,5.8,-,N/A,,Clear,10,2013-12-29 13:57:00
7:57 AM,55.0,19.9,25,30.04,10.0,North,13.8,21.9,N/A,,Clear,10,2013-12-29 14:57:00
8:57 AM,57.9,19.9,23,30.07,10.0,North,17.3,25.3,N/A,,Clear,360,2013-12-29 15:57:00
9:57 AM,62.1,21.0,21,30.09,10.0,North,15.0,24.2,N/A,,Clear,360,2013-12-29 16:57:00
10:57 AM,64.9,19.0,17,30.09,10.0,North,17.3,25.3,N/A,,Clear,360,2013-12-29 17:57:00
11:57 AM,66.9,18.0,15,30.08,10.0,North,17.3,28.8,N/A,,Clear,10,2013-12-29 18:57:00
12:57 PM,68.0,17.1,14,30.06,10.0,North,19.6,-,N/A,,Clear,360,2013-12-29 19:57:00
1:57 PM,69.1,15.1,13,30.05,10.0,North,19.6,27.6,N/A,,Clear,10,2013-12-29 20:57:00
2:57 PM,70.0,14.0,12,30.04,10.0,North,23.0,33.4,N/A,,Clear,360,2013-12-29 21:57:00
3:57 PM,70.0,12.9,11,30.05,10.0,North,16.1,-,N/A,,Clear,10,2013-12-29 22:57:00
4:57 PM,69.1,15.1,13,30.06,10.0,North,11.5,-,N/A,,Clear,360,2013-12-29 23:57:00
5:57 PM,64.9,16.0,15,30.07,10.0,North,9.2,-,N/A,,Clear,350,2013-12-30 00:57:00
6:57 PM,62.1,15.1,16,30.09,10.0,NNW,6.9,-,N/A,,Clear,340,2013-12-30 01:57:00
7:57 PM,60.1,15.1,17,30.11,10.0,WNW,4.6,-,N/A,,Clear,290,2013-12-30 02:57:00
8:57 PM,55.9,17.1,22,30.12,10.0,Calm,Calm,-,N/A,,Clear,0,2013-12-30 03:57:00
9:57 PM,55.0,17.1,23,30.14,10.0,NNW,5.8,-,N/A,,Clear,340,2013-12-30 04:57:00
10:57 PM,57.0,14.0,18,30.15,10.0,NNW,5.8,-,N/A,,Clear,330,2013-12-30 05:57:00
11:57 PM,57.0,12.0,17,30.16,10.0,North,8.1,-,N/A,,Clear,350,2013-12-30 06:57:00